星链-31908 (STARLINK-31908 )

导读 | 星芒AI

STARLINK-31908 是 SpaceX 星链(Starlink)卫星互联网项目中的一颗低轨通信卫星。该卫星属于星链计划的第三批或后续批次部署,旨在为全球用户提供高速、低延迟的互联网服务。它运行在约 550 公里的近地轨道上,采用先进的通信技术,支持宽带接入。作为星链星座的一部分,STARLINK-31908 有助于扩大覆盖范围,提升网络性能,并推动 SpaceX 在全球卫星互联网市场的布局。

基本信息
目录编号:
59901
目录名称:
STARLINK-31908
国际标识:
2024-100S
轨道中心:
EARTH
卫星名称:
星链-31908
卫星全名:
星链-31908 (STARLINK-31908 )
卫星状态:
在轨 (已飞行524 天)
发射日期:
2024-05-28 UTC
国别 :
美国 (US)
星等 :
--
轨道信息
数据来源 国际轨道数据 AOE轨道数据
星历时间 2025-11-02T19:34:42+0800
17小时前
查看轨道信息
2025-11-02T10:00:00+0800
1天前
查看轨道信息
半长轴 6861.224km 6861.224km
偏心率 0.0001583 0.0001161
轨道倾角 43.003° 43.004°
近地点辐角 274.200° 255.808°
升交点赤经 116.744° 119.001°
平近点角 85.867° 66.890°
近地点 482.002km 482.292km
远地点 484.176km 483.886km
周期 94.268分钟 94.268分钟
每日圈数 15.275674 15.275674
详细信息
固有亮度:
5
最大亮度:
1.5
卫星平台:
Starlink v2.0 mini
覆盖范围:
全球
运营商:
太空探索技术公司
运营商所在国:
美国
制造商(研发单位):
太空探索技术公司
制造商所在国:
美国
使用方式:
暂无
卫星简介
星链(Starlink)计划是由太空探索技术公司(SpaceX)提出的一个巨型低轨卫星互联网星座项目,计划在2019年至2024年间在太空搭建由约1.2万颗卫星组成的“星链”网络,其中1584颗将部署在地球上空550千米处的近地轨道,并从2020年开始工作。该卫星仍在工作。
2D轨道图
3D轨道图
轨道高度分析图
轨道倾角分析图
轨道综合分析图
查看轨道综合分析图